STARLINK-32112, 60136

Orbit data source: Space-Track

STARLINK-32112, 60136 is a payload satellite owned by SpaceX/Seattle (US) in LEO that was launched on Thu, 27 Jun 2024 UTC via an FALCON 9 launch vehicle from the Air Force Eastern Test Range (AFETR). Payload-class satellites include a variety of spacecraft equipped with specific instruments for various scientific and technological missions. These include communications satellites like Starlink; space stations such as the ISS; scientific satellites like the Hubble; Earth observation satellites from companies like Planet Labs, Umbra, and HawkEye 360; GPS; miniature CubeSats for education and research; and military/defense satellites.

Loading next visibility...
Identifier
60136, 2024-120B
Orbit
LEO
Country
Flag of USUS
Related business
Manufacturer
SpaceX/Seattle
Mission
Operational Commercial Communications
Bus & Motor
STARLINK V2M, Unknown motor
Mass
730 kg wet, ~700 kg dry
Launch date (UTC)
2024-06-27 (2 years ago)
Launch vehicle
FALCON 9
Launch site
Air Force Eastern Test Range (AFETR)
Object type
Payload
Rocket body
Debris
Shape & HBR
Box + 2 Pan, 17.7 m
Radar Cross Section
33.884 m², Large (>1 m²)

Expand to show TLE details & history
Last TLE update: 11 hours ago

TLE from 11 hours ago
0 STARLINK-32112
1 60136U 24120B   26171.36959576  .00000934  00000-0  38786-4 0  9994
2 60136  53.1600 202.5169 0001259  86.7935 273.3212 15.34389292112182
Epoch: 2026-06-20T08:52Z
TLE epoch observation values (Epoch: 2026-06-20T08:52:13.073Z)
Latitude
-0°
Longitude
160.87723°
Altitude
463.587 km
Speed
7.636 km/s
True Right ascension
13h 30m 04s
True Declination
0° 00' 00"
Sunlit
Object was in full shadow at epoch
Visualization orbit readout
Latitude
Unknown
Longitude
Unknown
Altitude
Unknown
Speed
Unknown
Apparent Right ascension
Unknown
Apparent Declination
Unknown
Sunlit
N/A
Visualization observer readout
Local Sidereal Time
07:15:13
Azimuth
Unknown
Elevation
Unknown
Doppler factor
Unknown
Orbital elements
Apogee altitude
463.853 km
Perigee altitude
462.131 km
Semi-major axis
6,841.129 km
Eccentricity
0.00013
Inclination
53.16°
RAAN
202.5169°
Arg. of periapsis
86.7935°
True anomaly
273.3068°
Mean anomaly
273.3212°
Eccentric anomaly
273.314°
Mean motion
3.83576 °/min
Orbital period
93.85 mins
BSTAR
0.000038786
Loading maneuver chart data...
Computing Atmospheric mass density...
Loading historical data...
Loading historical data...
Loading historical data...
Loading historical data...
Loading historical data...
Loading historical data...
Loading historical data...

Documentation

Showing up to 5 results
|